GFSFLT2_sfc_30mbdewp_000.txt.gz
Dewpoint
57 57 61 65 65 65 65 66 65 65 65 65 65 64 63 62 61 60 60 60 59 58 59 59 59 59 59 60 60 60 58 57
57 59 58 59 58 63 64 65 65 64 63 62 63 62 61 60 58 59 59 58 58 58 58 57 57 58 58 57 56 57 57 57
59 58 58 58 56 59 61 63 64 64 62 62 61 57 58 56 58 59 59 59 58 57 56 54 53 55 56 55 54 53 54 54
59 60 59 58 55 58 58 58 58 60 60 61 58 60 59 58 59 59 59 58 56 56 57 56 54 48 49 54 49 52 51 52
58 61 61 59 54 56 54 54 56 58 61 62 60 60 58 57 56 55 55 57 54 54 54 52 53 52 49 50 49 50 46 47
58 60 61 61 56 54 54 54 54 55 57 61 60 57 57 56 54 52 53 53 55 53 52 54 49 46 46 46 44 41 39 42
59 61 61 59 60 56 57 57 54 56 56 56 59 56 54 53 51 49 49 51 51 52 50 47 40 37 40 41 39 39 41 37
60 61 59 55 56 58 55 54 52 52 51 51 56 57 52 49 46 44 44 45 48 49 47 44 39 37 38 40 38 37 38 38
59 58 54 54 53 52 50 47 49 46 46 49 51 51 48 48 44 44 44 45 48 50 50 45 41 37 37 38 38 38 36 36
56 54 49 50 49 50 48 46 48 46 46 47 49 50 50 48 45 44 44 46 45 46 46 44 41 37 34 35 35 35 35 36
53 51 41 45 49 49 49 50 47 42 43 42 43 46 46 47 45 44 45 45 44 45 44 43 41 37 34 34 35 34 33 32
51 45 44 49 48 48 43 42 41 40 39 39 40 40 42 44 44 45 47 46 45 43 44 43 41 39 33 30 33 35 35 33
48 46 44 42 38 37 35 36 36 37 38 41 42 41 41 42 41 42 43 43 44 46 45 44 44 41 39 35 34 36 37 34
42 39 39 38 36 38 39 40 38 40 38 39 38 37 36 36 38 39 39 40 41 43 44 44 44 43 40 37 33 32 34 35
38 39 39 39 38 36 36 36 36 35 35 34 35 35 35 35 36 38 39 39 37 38 40 41 40 42 42 40 35 31 31 31
39 39 38 38 38 37 38 35 35 36 36 35 35 33 34 35 35 37 38 37 37 36 35 37 38 38 38 40 42 39 36 32
40 39 38 38 37 38 36 37 37 36 35 33 30 29 32 33 36 37 38 37 36 39 40 40 40 40 38 38 40 40 38 36
40 37 37 38 38 37 39 40 38 35 32 30 28 30 30 32 36 37 38 38 37 37 39 40 39 39 38 38 37 35 34 33
37 37 36 38 38 36 36 36 35 33 32 30 31 30 30 33 37 36 35 36 36 36 37 37 37 37 37 37 38 37 37 37
39 37 36 35 35 33 32 36 36 34 32 33 32 32 34 37 36 35 36 36 37 37 37 36 36 36 36 36 36 36 36 35

GFSFLT2_sfc_30mbdewp_003.txt.gz
Dewpoint
53 55 62 65 65 66 66 66 66 65 65 65 65 64 62 61 61 60 60 59 59 58 57 57 58 59 59 60 60 59 57 53
54 54 54 56 60 64 65 66 66 65 64 63 63 62 61 58 59 59 59 58 58 57 57 56 56 57 58 57 57 58 56 52
54 54 54 54 52 59 61 63 64 63 62 61 61 57 56 56 58 59 59 59 58 56 55 53 53 55 55 53 54 52 51 50
56 56 55 54 48 52 52 53 55 56 57 57 54 56 56 55 58 60 60 59 57 56 56 56 56 47 48 53 50 48 48 49
54 60 57 54 49 51 50 50 52 53 57 57 55 55 54 53 53 54 56 59 53 55 54 52 52 49 46 46 45 46 43 43
55 59 57 55 52 50 50 49 50 50 53 55 54 52 52 52 50 49 47 46 50 49 49 50 49 43 41 42 42 40 33 36
52 57 53 51 54 52 53 53 51 52 51 51 52 52 51 49 47 45 43 43 44 46 46 45 43 39 37 39 38 38 39 38
52 55 53 49 50 53 53 51 49 48 46 47 50 51 49 47 45 43 42 42 43 44 45 46 42 38 37 38 39 36 36 38
53 54 51 47 49 50 47 43 45 44 43 46 46 48 47 47 45 44 43 44 44 45 44 45 44 42 37 37 38 39 38 37
51 53 48 46 47 46 44 44 44 45 44 44 46 47 47 47 45 44 44 46 44 43 43 43 43 41 41 37 35 36 36 36
48 52 43 43 47 45 46 45 45 41 41 40 42 43 43 45 44 45 48 46 47 47 45 45 43 43 41 40 37 36 37 35
47 50 41 43 45 46 41 41 41 39 39 40 42 42 44 44 44 46 47 46 46 46 48 46 47 45 42 40 41 38 38 39
44 45 46 43 41 38 36 36 37 39 40 41 42 42 41 40 40 41 43 42 44 46 46 45 46 46 46 45 44 42 41 38
46 44 40 38 37 39 40 41 39 40 39 38 38 39 39 38 38 38 38 38 42 43 44 44 43 44 43 43 40 41 40 40
40 40 40 39 38 37 37 37 37 36 37 37 38 40 37 35 34 36 39 39 38 40 40 40 39 40 42 41 38 37 39 38
39 39 38 38 39 38 38 37 36 38 38 38 37 35 32 32 33 35 38 38 39 38 34 41 39 38 39 37 39 39 39 39
40 39 38 39 38 38 39 39 40 41 39 37 36 32 32 31 32 34 37 36 37 39 39 38 37 37 36 37 39 39 39 38
40 38 37 39 40 40 41 42 41 36 34 33 31 32 31 31 31 34 36 36 35 36 36 38 40 38 38 37 37 37 37 36
38 37 37 38 39 39 36 35 35 34 33 32 32 30 30 32 34 35 34 34 34 37 41 40 39 38 38 37 36 36 36 36
41 40 38 36 37 37 36 36 35 34 34 33 32 31 32 32 33 35 34 34 36 36 36 37 36 36 35 35 35 35 37 37

GFSFLT2_sfc_30mbdewp_009.txt.gz
Dewpoint
64 65 65 64 65 65 65 64 64 64 63 64 62 62 61 60 59 58 57 56 55 54 54 53 54 54 54 56 55 55 55 56
60 61 62 63 64 64 63 63 62 61 61 62 61 61 60 60 58 58 56 55 55 53 53 53 53 53 53 54 55 56 51 55
58 59 60 61 61 62 62 62 62 61 62 61 61 61 59 59 59 58 56 56 56 56 55 54 55 54 55 55 55 55 53 54
56 57 61 58 57 60 61 61 62 62 62 62 61 61 61 59 58 59 57 58 58 58 58 57 57 56 51 52 54 53 48 48
56 54 54 54 57 59 60 60 61 61 61 57 58 56 59 58 59 59 59 60 59 59 58 58 56 55 50 45 44 43 45 43
56 56 53 54 51 56 55 56 56 59 57 57 56 56 53 53 51 53 55 56 57 56 54 52 53 52 49 43 41 42 43 42
57 55 54 54 55 56 54 55 52 53 55 53 53 54 51 51 52 49 48 49 48 47 46 46 48 48 46 43 40 41 42 42
59 58 56 54 55 56 54 54 52 55 51 51 52 51 52 52 50 50 48 50 50 48 47 47 48 49 48 45 42 40 41 42
60 60 59 54 54 54 55 45 46 49 48 48 49 49 49 50 50 51 51 51 51 49 49 50 48 48 49 48 45 43 42 41
58 58 57 55 54 51 48 49 47 48 49 50 49 50 50 49 48 48 50 50 50 49 49 50 49 49 48 48 48 46 43 43
54 54 59 55 48 49 48 46 45 46 46 46 46 47 46 45 44 44 46 47 47 49 49 49 46 45 45 44 45 46 46 44
54 58 54 50 50 48 47 45 45 45 44 44 45 44 42 41 41 41 43 44 43 43 43 44 44 44 44 44 46 46 47 46
54 53 51 50 46 43 42 41 43 43 42 44 42 41 41 41 41 44 44 42 42 42 43 41 41 43 42 40 41 42 41 41
45 44 43 43 43 44 43 43 42 41 42 43 45 44 43 41 41 42 43 40 39 39 39 41 41 41 39 39 36 37 39 40
40 40 40 42 41 39 40 40 41 41 44 44 43 44 39 38 39 38 41 41 38 39 41 39 39 41 41 40 37 36 36 38
40 40 39 40 41 41 40 42 43 44 44 43 42 38 36 38 37 38 39 39 39 41 42 42 41 40 41 39 39 36 33 31
41 40 40 40 40 40 42 40 40 42 43 38 37 36 37 37 37 37 38 39 38 41 41 40 40 39 38 38 36 35 35 32
39 39 40 41 41 43 41 38 40 38 37 35 35 36 37 35 38 39 39 39 40 40 41 39 39 39 39 38 37 35 34 33
42 41 40 41 41 41 40 38 38 37 35 35 34 36 36 38 38 38 38 38 39 38 38 38 39 38 38 37 37 36 36 35
41 41 41 42 42 39 39 38 38 38 35 35 37 37 36 37 39 38 38 38 38 37 37 37 37 37 37 36 37 37 37 36

GFSFLT2_sfc_30mbdewp_012.txt.gz
Dewpoint
66 66 66 65 64 64 64 65 64 64 64 63 61 60 60 60 59 58 56 55 54 53 53 53 54 53 53 54 55 57 52 53
63 64 64 63 63 63 63 62 62 63 63 61 61 60 60 60 59 58 56 55 54 54 54 54 54 54 55 55 56 55 52 52
61 61 61 62 62 62 62 61 61 61 61 61 61 60 59 60 60 57 58 56 56 57 57 56 55 55 55 52 53 52 50 49
58 58 58 60 60 62 61 61 61 61 61 61 61 61 60 58 60 59 59 58 58 59 59 59 58 56 55 49 47 48 45 45
58 59 57 57 57 58 59 60 61 61 61 61 61 60 60 61 59 59 59 58 59 58 58 57 57 56 55 49 43 42 43 43
56 59 57 56 57 58 58 59 60 60 60 58 55 55 53 54 55 53 53 51 54 55 54 51 50 52 53 49 44 41 41 43
56 55 55 54 55 57 57 56 57 58 57 55 54 53 50 51 50 50 49 50 49 48 47 46 47 48 48 48 45 42 41 42
57 56 56 55 56 55 55 54 53 55 53 52 52 53 50 50 50 50 50 51 52 50 49 49 49 50 49 50 48 45 42 41
55 55 58 54 56 55 53 49 53 51 49 52 52 51 50 51 49 46 47 48 48 49 49 49 47 47 46 47 47 47 46 44
56 55 57 55 54 54 51 46 48 49 50 50 50 50 48 45 42 41 44 45 46 45 46 44 44 45 45 45 44 46 46 45
53 56 57 54 53 52 49 48 47 47 47 48 45 44 43 42 41 41 45 44 43 44 42 43 41 41 41 40 42 43 45 46
57 57 57 54 50 49 47 45 44 45 43 43 43 43 43 42 42 43 44 42 41 40 40 40 41 42 39 40 40 41 41 43
53 52 50 51 46 45 43 42 41 43 45 45 44 44 43 41 42 42 43 41 40 39 40 39 38 41 39 37 39 38 40 39
45 43 43 43 44 44 45 43 43 43 44 44 44 40 39 38 38 39 41 38 37 38 40 40 41 41 39 39 33 35 37 37
40 40 41 41 41 40 41 41 42 44 44 42 38 37 38 38 38 38 39 39 38 39 41 40 39 41 41 38 36 34 36 36
39 39 39 40 40 40 41 42 42 44 43 39 36 37 37 38 39 39 40 41 40 41 42 41 40 38 40 39 38 36 33 31
40 40 40 40 40 41 42 41 41 42 38 36 35 37 39 39 39 38 38 39 38 38 41 39 39 39 38 38 37 36 36 33
39 41 41 42 42 43 41 39 39 37 35 34 36 38 38 39 38 38 38 39 38 38 37 37 38 38 38 37 37 35 34 33
42 41 42 42 40 39 38 38 37 35 35 35 37 37 37 38 38 37 37 38 37 37 36 35 36 36 36 37 38 37 37 36
41 38 37 38 37 37 37 37 38 37 36 38 37 36 36 38 37 35 34 35 36 36 36 35 35 35 34 33 34 36 36 35

GFSFLT2_sfc_30mbdewp_015.txt.gz
Dewpoint
68 68 68 67 66 66 65 64 64 64 64 63 62 61 60 59 59 57 55 54 54 54 55 55 55 55 55 55 56 55 51 52
65 65 64 64 63 63 63 63 63 63 63 62 60 60 59 60 59 59 56 54 55 55 55 55 56 56 56 53 54 50 48 49
62 62 62 62 62 62 62 62 62 62 62 61 60 59 59 59 59 58 58 56 57 58 58 58 58 56 56 54 49 47 45 45
60 60 60 61 61 61 61 61 61 61 61 60 60 60 59 59 59 60 60 60 59 59 60 60 59 56 55 54 46 43 41 42
58 58 59 59 58 60 60 60 60 60 61 61 60 60 60 60 59 58 58 58 56 57 56 57 55 55 55 54 49 43 41 41
57 57 57 57 58 58 58 59 60 60 60 60 58 56 54 55 56 52 50 50 50 50 50 49 48 49 51 51 50 45 43 42
57 58 56 56 57 57 58 58 59 59 59 58 55 52 51 51 50 50 50 50 50 49 49 49 49 49 48 49 48 48 45 43
57 57 56 55 56 57 57 57 57 58 57 55 54 53 51 50 50 48 47 48 48 48 48 47 46 46 44 45 46 47 47 45
57 57 56 55 55 56 55 54 55 56 53 52 51 52 51 49 44 43 45 46 46 45 45 44 41 42 41 43 43 43 45 46
59 59 57 56 56 56 51 49 49 50 51 50 50 48 45 43 42 42 44 45 44 43 43 39 39 41 40 40 40 42 42 44
58 59 58 55 55 54 50 48 47 48 46 44 44 43 44 42 42 44 45 42 42 41 40 40 39 39 39 37 40 39 41 43
57 57 56 54 54 48 46 45 45 44 43 44 44 44 43 42 42 43 42 40 38 38 38 39 39 40 39 37 37 39 40 40
55 54 53 48 47 44 44 44 45 45 45 44 41 41 39 38 39 40 39 37 37 38 39 39 38 41 39 37 37 37 38 37
46 47 46 45 46 48 48 45 43 46 43 40 39 38 38 38 38 39 39 39 39 39 40 40 40 41 39 39 34 34 37 37
41 41 41 43 43 43 42 43 43 44 41 37 38 38 39 39 39 39 40 40 39 41 40 40 39 40 40 38 35 32 35 35
39 39 40 40 41 40 40 41 41 43 41 37 38 39 39 39 38 39 39 39 38 39 39 39 38 38 38 39 38 37 34 31
40 41 41 41 41 42 43 41 42 39 37 36 38 39 39 39 39 38 38 38 37 37 36 36 37 37 37 37 37 37 35 34
42 42 42 41 40 39 39 38 36 35 35 34 38 38 39 40 38 37 38 37 37 36 36 35 35 35 36 37 36 34 34 34
41 40 38 38 37 37 37 36 36 35 35 35 38 38 39 37 36 34 33 35 36 36 35 34 33 33 34 34 34 34 34 34
37 37 36 36 37 36 36 37 38 37 36 37 38 37 36 37 35 33 33 34 35 35 35 33 33 33 30 32 32 33 34 34

GFSFLT2_sfc_30mbdewp_021.txt.gz
Dewpoint
67 67 68 68 68 67 66 65 65 64 63 63 61 60 60 59 59 58 58 59 59 59 59 59 60 59 58 57 51 49 44 43
66 67 66 67 67 66 65 64 64 63 63 62 60 59 59 59 58 59 59 59 59 60 60 59 59 57 57 57 54 48 46 44
65 66 66 66 65 64 63 63 63 62 62 60 59 58 59 59 59 60 60 60 60 60 60 59 54 53 53 55 53 50 49 47
64 65 64 63 61 62 61 61 60 61 60 61 60 60 59 59 59 59 59 57 57 58 57 54 50 50 50 51 50 52 49 49
63 63 62 60 59 60 59 60 60 60 61 61 61 61 61 61 59 55 54 53 52 51 51 50 51 50 49 48 47 47 47 46
60 60 60 60 59 59 59 59 60 60 61 62 61 60 59 58 52 52 52 51 51 51 50 51 48 46 46 46 46 43 44 44
58 58 58 58 58 58 59 59 60 61 61 60 58 55 54 53 52 50 49 48 48 47 47 45 44 42 41 40 38 40 39 38
58 58 57 57 58 58 58 60 59 59 59 58 57 54 54 52 48 46 47 47 46 45 44 41 40 40 38 39 37 38 37 39
58 58 58 57 57 59 58 55 54 55 56 56 55 54 50 47 46 46 47 46 45 43 41 40 38 37 36 36 35 37 34 40
59 57 57 58 59 59 58 56 55 53 54 51 49 48 48 47 47 46 45 42 41 42 39 36 35 35 35 33 35 33 36 40
58 59 59 59 59 59 56 50 48 47 49 49 49 47 47 46 44 44 42 40 40 38 38 38 35 34 33 32 34 29 33 38
59 59 58 59 57 53 48 48 49 50 48 45 44 43 44 42 41 41 40 38 38 38 37 37 37 37 33 32 32 30 38 38
58 58 58 55 49 47 47 48 50 43 41 42 41 41 41 41 39 39 39 39 40 40 38 36 32 37 28 27 26 35 38 35
57 56 56 49 47 48 50 49 46 41 40 41 40 40 40 39 40 40 40 38 40 39 38 33 34 37 31 26 21 22 34 34
54 49 48 47 49 47 46 47 45 42 38 38 39 39 38 40 41 40 39 38 38 38 37 34 28 32 34 30 24 21 27 25
46 45 44 44 44 45 45 43 43 40 38 38 38 40 39 39 40 40 40 38 36 35 33 32 29 24 26 30 30 30 24 22
43 43 43 43 44 44 41 40 39 38 38 39 39 39 40 40 40 40 38 35 35 33 32 30 29 26 24 24 25 26 26 26
43 40 39 40 40 39 38 37 38 37 37 38 39 39 40 41 40 38 36 34 34 33 33 32 29 28 26 25 23 22 21 22
40 38 38 39 39 38 38 38 38 37 38 37 38 38 39 39 40 38 33 34 34 34 32 31 30 27 28 26 29 28 27 26
39 38 38 38 38 38 39 39 39 39 39 39 38 38 38 39 39 35 33 34 34 34 34 33 33 31 30 28 27 27 31 29

GFSFLT2_sfc_30mbdewp_024.txt.gz
Dewpoint
65 64 65 68 67 66 66 65 65 64 63 62 60 60 60 60 59 59 59 60 60 60 61 61 60 59 58 57 50 48 43 41
65 65 64 64 65 65 65 64 63 63 62 60 59 59 59 58 58 60 60 60 61 61 59 57 54 54 56 56 53 49 44 43
65 63 63 62 61 63 63 63 63 62 60 60 57 55 56 56 59 60 60 59 59 59 58 52 50 50 50 50 50 42 44 42
65 65 64 62 59 59 56 55 55 57 57 58 57 59 58 56 58 58 55 54 55 54 51 50 47 44 43 44 43 44 41 42
64 64 62 58 56 54 52 54 57 59 60 60 60 60 60 58 53 50 51 52 49 50 48 46 48 45 44 44 43 40 40 40
59 59 59 57 53 52 55 57 59 59 61 62 61 59 59 57 49 50 51 49 49 47 45 47 46 44 42 41 40 39 37 36
55 56 56 56 55 57 59 60 60 61 61 61 59 56 56 52 52 49 48 47 46 45 44 44 42 40 41 39 37 37 37 34
55 54 55 56 57 59 59 58 57 58 60 60 60 58 55 52 50 47 46 46 45 44 44 41 40 39 37 39 38 37 37 36
57 56 56 58 59 58 58 58 58 57 58 58 58 56 54 50 47 47 47 46 44 42 41 39 38 37 36 36 35 36 35 37
59 58 58 59 60 58 58 57 58 56 57 55 53 50 50 49 48 46 46 43 41 39 39 37 36 37 36 36 35 36 35 34
59 59 59 59 59 59 59 55 51 51 52 51 51 49 49 46 45 44 42 40 39 38 38 39 38 37 36 33 32 32 29 24
59 60 59 59 58 58 52 49 49 48 49 46 45 45 45 43 43 42 39 39 40 41 41 39 36 35 33 25 26 26 27 29
59 58 60 58 57 53 49 48 48 45 43 44 43 42 42 41 39 41 42 39 41 39 35 32 31 33 33 26 24 23 32 33
58 58 58 55 52 48 47 48 46 43 42 43 41 41 40 39 40 38 39 35 37 38 37 34 30 30 31 26 21 20 20 30
57 56 55 48 48 49 49 48 44 42 42 40 40 40 38 38 38 36 35 34 31 36 35 33 30 25 26 25 24 20 21 21
50 48 47 48 47 44 44 42 42 42 40 40 38 38 36 35 35 38 37 36 35 34 30 31 28 24 23 23 25 25 22 21
47 45 44 45 45 45 42 41 39 37 36 36 36 35 37 37 36 38 39 38 35 33 31 30 27 26 24 22 22 21 21 19
44 42 42 42 41 40 38 35 31 29 31 31 29 31 32 34 37 39 38 37 34 33 33 31 30 27 24 23 21 20 20 19
43 41 41 40 37 33 32 32 32 29 30 30 31 26 26 28 31 31 34 35 34 34 32 32 31 26 24 23 23 22 20 20
41 40 37 34 32 33 36 33 30 30 29 26 24 25 24 26 27 30 34 36 35 33 32 32 31 29 26 24 23 21 20 19

GFSFLT2_sfc_30mbdewp_027.txt.gz
Dewpoint
64 64 65 66 66 66 65 65 64 63 62 61 60 60 60 59 59 59 60 60 60 60 60 59 58 57 56 54 53 51 48 43
64 63 64 64 64 65 64 63 63 62 60 59 59 58 58 58 59 60 61 61 60 60 59 53 53 52 48 46 48 51 42 41
63 62 61 61 62 62 62 63 62 60 58 57 57 55 56 56 58 60 59 56 57 57 53 49 49 51 47 44 46 42 41 41
61 62 61 59 56 55 53 54 55 56 55 56 56 56 57 55 55 57 53 53 54 50 48 49 50 45 44 44 42 42 39 39
62 62 59 55 54 51 50 52 55 57 58 59 59 57 57 56 53 51 51 51 50 49 48 46 47 46 45 44 42 40 38 38
58 57 56 53 50 48 50 54 56 59 61 61 59 56 58 54 50 48 49 48 49 47 46 47 46 44 42 42 41 39 38 38
53 55 54 51 50 52 56 57 60 60 60 61 59 58 57 54 53 50 49 48 47 47 46 45 43 42 42 40 40 40 39 38
53 51 51 53 55 57 58 56 56 56 56 58 61 59 58 56 55 53 50 48 49 47 46 43 42 41 39 39 39 38 37 37
52 53 55 56 58 56 56 56 57 56 57 59 59 58 57 53 51 51 50 47 47 44 43 41 39 39 38 37 37 35 34 36
55 55 58 58 58 58 58 59 57 56 57 56 53 52 52 52 50 48 47 44 42 41 40 40 40 39 38 38 36 31 29 32
57 57 60 58 58 59 58 58 56 53 53 53 51 50 49 47 46 46 44 42 41 42 42 42 40 39 34 31 32 25 27 25
58 59 58 58 60 59 57 54 52 51 50 47 47 47 46 44 44 44 44 42 42 43 42 39 36 32 28 30 32 27 27 27
59 59 58 58 56 53 52 51 49 48 46 46 45 44 43 43 41 42 42 41 39 40 38 34 31 29 29 28 28 28 27 24
58 58 58 58 56 55 51 49 47 44 44 45 44 43 42 40 42 40 38 36 33 31 34 34 31 29 27 25 23 22 22 25
57 57 58 55 50 48 48 48 46 43 43 43 43 42 39 38 38 36 35 34 31 32 33 33 30 29 28 25 23 20 21 21
57 57 51 48 47 45 45 42 42 43 43 41 40 40 38 35 33 35 35 35 35 34 31 32 32 29 28 26 25 23 20 19
52 49 46 47 45 45 45 43 43 40 38 36 33 34 33 33 34 35 36 35 34 34 33 33 33 30 29 25 21 20 20 19
47 45 44 45 45 44 43 39 33 31 32 31 29 29 29 27 28 30 30 30 33 32 33 34 34 32 29 23 22 21 21 21
45 43 42 43 41 37 35 33 32 33 32 28 27 23 23 24 27 26 27 29 31 33 35 36 32 31 30 27 26 25 25 22
42 42 42 40 35 33 34 32 32 29 27 26 26 25 23 25 25 26 27 30 30 34 35 33 33 34 34 32 29 26 25 24

GFSFLT2_sfc_30mbdewp_030.txt.gz
Dewpoint
65 65 66 66 65 65 65 64 63 61 61 61 60 60 60 60 60 61 61 61 61 60 58 55 56 53 47 46 49 49 48 51
65 64 65 64 64 64 63 63 61 60 58 58 58 57 58 59 59 60 59 59 59 58 54 51 51 49 48 45 46 46 44 48
65 63 64 63 63 63 63 62 59 58 58 58 57 57 57 59 57 58 56 54 55 53 48 47 50 51 49 49 47 44 44 45
63 63 64 61 56 59 59 59 58 56 56 56 58 59 56 56 56 55 51 51 53 51 48 49 50 48 48 46 45 44 42 42
62 60 60 56 56 56 57 58 59 59 60 60 60 60 59 57 59 54 53 52 56 51 52 50 49 49 47 46 45 43 42 41
61 59 58 56 56 53 52 58 60 62 61 60 59 59 58 56 55 54 53 52 51 51 51 50 49 47 45 46 45 43 43 42
57 57 55 53 54 58 60 61 61 61 61 60 61 59 59 59 57 53 53 52 52 50 49 48 45 43 44 42 42 42 42 42
56 55 54 55 61 60 60 59 58 58 58 60 61 59 59 56 54 52 53 49 48 47 45 44 44 45 43 43 43 42 39 37
53 53 55 60 58 57 58 57 57 57 59 60 59 57 56 54 53 51 48 47 45 45 45 44 44 43 42 42 40 39 33 33
53 54 60 58 56 56 57 58 58 57 57 55 54 53 53 50 50 49 48 49 46 44 45 46 44 44 42 38 37 34 33 33
56 58 59 58 58 60 59 58 55 54 54 53 52 51 50 50 49 48 47 45 45 46 45 44 41 38 34 30 35 33 34 30
58 61 60 59 60 58 57 55 53 53 52 50 50 49 48 48 47 46 46 45 43 44 44 42 38 36 33 32 34 33 31 32
58 59 59 59 57 55 54 52 51 50 49 48 47 47 45 46 46 45 44 41 40 38 37 37 37 37 34 32 30 28 28 31
59 58 58 58 57 54 53 51 50 49 47 47 46 44 43 45 43 41 40 38 37 39 38 37 36 36 33 32 29 28 28 27
59 59 58 58 57 55 53 51 47 45 46 46 44 43 41 40 38 38 39 39 38 39 38 36 34 34 34 32 28 27 26 25
58 58 58 58 56 50 49 47 45 45 46 45 44 42 39 36 36 37 40 40 39 39 36 37 35 34 34 32 31 28 23 22
58 58 57 51 48 49 48 46 46 43 41 39 36 37 38 35 35 36 35 35 37 38 37 36 36 35 33 33 31 27 25 24
58 56 48 48 46 47 47 43 39 37 36 35 34 33 32 33 32 31 32 33 34 35 37 37 36 35 34 34 31 27 25 25
50 47 45 46 46 43 39 36 37 37 36 34 29 28 29 30 29 30 31 32 33 35 37 37 37 36 35 35 34 31 29 28
47 44 44 44 42 38 38 38 36 34 33 29 29 28 27 28 29 30 30 30 31 33 36 37 37 36 35 36 36 34 33 30

GFSFLT2_sfc_30mbdewp_033.txt.gz
Dewpoint
64 65 66 65 65 64 62 61 61 61 61 61 60 60 60 60 60 60 60 59 58 56 53 52 50 48 49 51 47 49 51 51
64 65 65 64 63 62 62 60 60 59 59 58 58 58 59 59 59 58 58 57 56 52 50 50 49 49 49 50 45 44 47 51
63 64 63 63 62 63 61 58 57 57 58 58 58 58 58 59 57 55 54 53 53 51 48 50 50 50 50 48 45 43 46 49
60 62 62 61 60 61 59 58 57 57 57 57 56 57 58 57 56 55 52 52 52 50 51 51 48 48 47 45 44 42 43 46
59 62 61 56 58 58 58 58 56 57 56 57 59 60 58 57 56 55 54 54 54 52 53 50 48 47 46 46 44 41 42 41
61 62 58 56 57 56 57 58 60 61 62 61 60 60 59 58 54 55 54 53 51 50 48 45 43 43 43 42 43 42 43 42
60 59 56 56 55 59 60 61 61 62 59 60 59 58 57 55 54 53 51 49 47 45 44 42 42 44 43 43 42 42 36 35
57 57 55 57 60 61 61 60 58 58 59 61 60 59 56 54 52 50 47 46 45 44 44 44 45 44 43 42 40 36 32 31
54 54 60 60 58 57 57 56 56 57 59 59 56 56 53 52 50 48 46 47 45 44 46 45 44 43 42 38 37 33 33 33
53 58 59 57 57 57 56 57 57 58 55 54 53 53 51 50 49 47 48 49 46 46 45 43 41 38 36 33 35 34 32 30
54 59 57 57 57 57 58 56 56 55 53 51 51 51 51 49 47 45 47 46 45 44 43 42 38 36 34 32 34 32 29 32
59 59 58 58 57 58 58 54 54 54 51 50 50 49 50 48 46 46 45 43 40 39 39 40 38 37 35 33 31 31 30 29
59 58 58 58 57 56 54 52 52 52 51 50 49 46 46 46 45 41 40 38 37 39 38 36 36 36 32 32 31 32 29 27
60 58 57 58 57 57 54 52 51 50 47 47 46 45 45 43 41 39 38 38 38 39 37 37 36 34 30 33 29 29 29 26
58 58 57 58 58 57 54 51 49 47 46 45 44 43 41 41 40 38 39 39 38 38 38 35 33 34 35 32 29 28 28 25
59 58 57 58 58 55 51 46 44 46 46 44 42 41 38 36 39 39 38 38 36 39 38 36 34 33 34 33 32 31 27 24
59 59 58 58 58 54 49 46 45 46 45 43 43 41 39 34 33 32 32 33 34 34 34 37 37 35 33 33 32 31 28 25
58 58 58 58 52 51 47 44 41 38 37 35 37 34 32 31 31 30 30 31 32 33 34 38 36 35 35 35 33 31 28 26
58 57 53 48 44 43 41 40 37 35 35 34 29 29 30 29 30 30 30 30 31 32 34 36 36 36 36 35 35 34 32 31
56 51 47 45 40 37 37 37 37 36 34 31 30 29 29 30 30 29 29 30 31 30 32 34 37 37 36 36 36 36 34 34

GFSFLT2_sfc_30mbdewp_036.txt.gz
Dewpoint
64 62 62 64 63 62 62 62 63 63 63 62 61 61 61 60 60 60 59 57 55 53 51 49 50 51 48 52 51 52 51 54
60 63 62 61 63 62 62 62 62 61 60 60 60 60 59 59 58 58 57 56 54 53 50 50 52 50 48 47 46 51 49 52
59 61 63 63 62 61 60 60 60 59 59 59 59 59 58 58 56 57 55 53 52 51 50 51 49 51 49 46 44 45 48 47
59 61 62 62 60 60 59 58 58 58 58 57 57 58 58 58 56 57 55 54 54 52 53 51 49 47 46 44 41 41 43 46
60 62 61 60 58 59 58 57 56 56 56 56 57 58 59 57 57 54 52 54 54 52 46 45 44 44 44 44 43 43 42 41
60 61 60 57 57 57 57 56 56 58 60 60 60 59 58 57 57 54 53 51 48 46 45 43 44 44 43 42 42 37 35 36
59 60 61 56 56 56 57 58 61 60 60 59 59 57 54 54 53 50 48 47 45 44 44 45 45 44 43 40 37 33 32 33
58 61 58 56 58 58 61 61 59 59 60 59 58 56 54 52 49 47 45 45 45 46 45 44 43 41 38 38 34 33 33 32
59 59 56 59 60 59 58 57 57 58 59 57 57 55 53 50 47 46 47 46 46 46 45 43 39 37 35 34 35 33 31 29
57 58 59 58 58 56 56 56 58 57 56 55 54 52 51 49 47 47 48 47 46 44 43 41 37 36 34 32 35 31 31 28
56 59 57 57 56 57 57 57 56 55 53 52 52 51 50 48 46 47 46 43 42 42 42 40 36 35 35 34 32 31 31 28
58 57 57 57 57 57 55 54 54 54 51 51 51 50 50 47 47 45 41 38 37 37 36 37 37 36 34 31 31 32 30 27
58 57 57 56 56 55 53 52 53 52 50 50 50 49 48 45 41 40 38 37 38 37 37 36 36 34 32 32 33 31 28 27
58 57 57 56 56 56 53 52 52 51 50 50 47 46 44 42 40 38 38 38 38 38 37 37 36 35 31 33 28 29 30 27
58 57 57 57 57 56 53 51 50 48 47 46 45 44 43 41 39 38 39 39 38 38 37 35 33 34 35 31 29 27 29 27
58 58 57 57 57 56 51 49 47 46 46 44 43 42 41 40 39 41 39 36 35 36 37 37 35 33 34 33 32 31 28 27
58 58 57 57 57 56 51 48 47 46 46 43 42 41 38 37 35 33 33 33 33 32 33 35 37 35 34 33 33 32 30 28
58 58 58 57 58 56 51 48 46 46 44 42 42 36 34 32 32 31 31 31 31 32 34 37 36 35 35 35 34 32 31 29
58 58 57 58 56 55 49 46 45 45 42 40 36 33 31 31 31 30 31 31 30 30 31 33 35 36 36 35 35 35 33 31
58 58 56 53 50 49 45 41 40 38 37 34 34 31 30 31 31 30 30 30 29 30 33 36 35 34 34 34 35 35 35 34

GFSFLT2_sfc_30mbdewp_039.txt.gz
Dewpoint
64 64 65 64 64 64 64 64 64 64 63 63 62 62 61 60 60 59 57 55 52 51 52 53 53 51 53 54 52 53 52 54
60 61 61 62 62 62 63 63 64 63 63 61 60 60 60 59 59 58 57 55 53 52 54 54 51 52 49 52 52 49 48 49
60 60 58 59 61 61 62 62 62 62 61 60 60 59 59 57 57 57 57 55 54 54 52 52 51 51 51 47 46 47 46 45
59 59 57 61 60 59 59 60 60 59 58 58 58 58 58 57 57 55 55 54 54 54 52 49 47 45 44 44 43 42 42 46
58 59 62 61 59 59 57 58 57 57 57 56 57 58 58 56 56 52 53 55 51 46 44 45 44 44 42 42 38 36 36 37
57 61 61 60 58 57 57 56 56 56 56 56 57 59 58 57 55 54 51 49 46 45 45 45 44 42 41 38 34 34 33 33
59 61 61 58 57 56 56 56 58 60 60 60 59 58 54 55 52 50 47 46 44 45 45 44 43 39 38 34 34 33 32 33
59 59 61 57 56 56 57 60 60 59 59 58 58 55 53 50 48 46 45 46 46 45 43 41 39 36 36 35 33 31 30 30
58 59 59 56 57 58 59 60 59 59 58 58 56 54 51 48 46 46 46 46 45 44 42 39 36 35 33 35 31 30 29 29
58 60 58 58 58 58 58 58 57 58 57 56 55 53 50 48 47 48 47 46 44 43 41 38 36 35 32 33 33 31 28 28
58 58 58 58 57 57 56 57 56 55 54 54 52 51 50 47 47 47 44 42 41 41 39 37 35 35 34 31 32 30 28 28
58 58 57 57 56 56 56 55 55 54 52 52 51 50 48 47 45 42 39 38 37 36 35 37 37 35 33 31 33 31 28 27
57 57 57 56 56 54 53 52 53 51 50 51 50 50 47 45 42 39 38 37 37 36 37 35 35 34 31 32 33 31 29 27
57 57 56 56 55 54 53 52 52 51 50 50 49 48 45 41 40 38 39 38 38 37 36 36 35 34 32 32 27 28 30 29
57 57 56 56 56 54 53 51 50 49 49 48 46 46 43 41 39 39 39 39 38 38 36 35 33 34 35 31 28 27 29 29
57 57 56 56 56 54 51 50 49 48 48 46 45 45 43 41 40 40 39 37 35 36 36 36 35 33 35 34 32 31 29 28
57 57 57 56 56 55 52 49 48 47 46 45 43 41 40 40 38 34 34 34 33 33 33 35 36 35 34 33 33 32 31 29
58 57 57 56 56 56 52 49 47 46 45 43 41 38 36 34 33 33 33 32 31 31 34 36 36 35 35 35 34 33 31 31
58 58 57 57 56 56 53 50 48 47 45 43 39 35 32 32 32 32 32 31 31 31 31 32 35 35 35 35 35 35 34 33
57 57 57 57 56 56 53 50 48 47 45 42 37 33 32 32 33 32 33 31 30 30 32 35 35 34 33 34 33 33 35 35

GFSFLT2_sfc_30mbdewp_042.txt.gz
Dewpoint
65 62 63 64 64 65 65 65 64 64 63 63 63 62 61 60 57 56 56 57 58 56 54 54 56 57 55 54 54 53 51 51
61 60 59 62 63 64 65 64 64 64 63 61 60 60 59 58 58 57 55 56 58 58 56 54 54 56 55 51 49 48 46 46
57 59 60 61 61 63 63 64 63 62 61 60 59 59 59 56 58 58 56 56 55 56 55 54 54 52 50 49 45 44 45 45
55 58 57 59 60 60 61 61 60 59 59 58 58 57 56 57 56 56 56 56 56 53 51 49 45 44 44 41 37 37 37 41
57 57 58 61 59 58 58 58 58 57 57 56 57 58 57 56 54 52 55 50 45 45 45 44 42 41 38 35 34 34 33 34
58 58 61 60 59 56 57 56 56 56 56 57 58 58 56 55 54 52 49 46 45 45 45 42 40 38 35 34 33 32 32 33
57 58 61 59 58 56 56 55 56 56 56 56 58 58 56 54 52 48 46 45 45 45 43 39 38 36 35 33 31 31 31 32
55 60 61 58 57 55 55 56 58 59 59 59 59 57 55 50 47 46 45 46 45 42 40 37 35 35 34 32 30 29 30 31
56 59 60 57 56 55 57 58 59 59 59 58 57 54 51 47 46 46 46 45 43 41 39 37 35 34 34 32 30 28 29 33
58 59 60 57 56 56 57 59 58 58 57 56 54 52 48 47 46 46 46 45 43 40 38 36 36 33 33 33 31 29 28 30
58 59 59 58 57 57 58 58 57 57 56 54 53 51 48 47 47 47 45 43 41 40 38 36 35 35 32 32 31 28 27 27
58 58 58 57 56 56 56 56 55 54 54 53 52 50 48 48 46 44 41 39 39 36 36 37 35 35 32 32 33 30 28 27
57 57 57 56 56 55 55 54 54 52 52 52 51 49 47 46 43 40 39 37 36 36 36 35 33 34 31 32 32 31 29 28
57 57 57 56 56 55 54 53 53 51 51 50 50 48 47 44 40 39 39 38 37 36 36 36 35 34 32 31 27 28 30 30
57 57 56 56 56 54 52 51 51 50 49 49 49 47 45 42 40 39 39 38 37 37 36 34 33 34 34 30 27 26 29 30
57 57 56 56 55 54 52 51 49 49 48 48 47 46 43 41 40 39 39 38 37 36 36 35 34 31 34 34 32 31 30 29
56 57 56 56 56 54 52 50 49 48 48 47 45 44 42 40 40 37 35 34 33 33 34 35 35 34 34 33 33 32 31 30
56 56 56 56 56 55 52 51 49 48 47 46 43 41 40 38 36 34 33 33 32 32 35 35 35 35 35 34 33 32 32 31
56 56 56 56 56 56 54 52 51 49 47 45 41 37 36 34 33 32 32 33 33 34 31 31 33 34 35 35 35 34 34 33
56 57 56 56 56 56 55 53 52 49 48 46 41 37 34 33 33 34 35 36 37 31 31 33 35 35 34 34 33 33 33 33

GFSFLT2_sfc_30mbdewp_045.txt.gz
Dewpoint
65 64 62 61 65 65 64 64 64 64 64 64 63 61 60 59 60 60 59 57 57 59 60 59 57 57 56 54 53 51 44 47
60 60 59 61 63 65 65 64 64 64 63 61 59 59 59 59 58 59 60 59 57 57 58 59 57 55 53 51 49 47 43 43
55 57 58 59 61 64 64 64 63 61 60 59 57 53 54 53 57 57 58 60 58 58 56 54 53 52 50 47 44 44 42 43
55 57 57 56 59 61 63 62 61 59 58 57 55 57 56 55 56 58 58 58 56 54 51 48 44 42 38 38 37 38 38 40
56 55 56 56 57 60 61 59 58 59 58 57 58 57 57 55 55 55 53 50 46 46 44 43 42 38 38 37 37 35 34 33
55 56 55 57 57 59 58 57 56 57 56 58 58 57 57 54 53 54 49 47 47 45 44 43 40 39 39 37 37 34 33 32
56 59 59 59 58 57 57 57 56 57 57 58 59 57 56 55 52 50 47 47 47 44 43 40 40 38 36 35 34 34 34 34
56 57 60 59 57 56 56 56 56 57 57 58 60 59 57 54 50 47 47 47 46 43 41 40 38 36 35 34 33 32 34 40
56 58 61 59 57 55 56 57 58 59 60 60 60 58 56 52 49 47 47 46 45 43 40 39 36 35 34 33 31 33 34 41
56 57 60 59 57 56 56 58 60 61 60 59 58 55 52 50 48 48 47 46 44 42 40 38 36 35 35 33 31 30 34 39
56 58 60 59 58 57 58 59 60 59 59 57 55 53 51 49 48 48 48 46 45 41 40 38 36 35 33 34 33 29 30 29
56 57 59 59 58 57 57 58 59 58 58 56 54 51 50 49 49 49 46 44 41 39 39 39 36 35 31 33 35 30 29 29
56 58 59 58 57 56 56 56 57 56 55 55 54 51 50 50 48 46 43 41 39 40 39 38 36 37 32 33 33 32 31 29
56 57 58 58 57 56 55 56 56 55 53 53 52 52 50 48 46 43 41 40 40 40 40 37 36 37 31 31 26 29 31 32
56 57 58 58 58 56 55 55 54 52 51 51 51 50 48 46 44 42 42 41 40 40 39 35 31 36 38 31 23 20 29 32
56 57 57 58 58 55 54 53 53 53 52 52 51 49 47 44 43 43 42 41 40 39 37 36 36 31 36 35 35 33 25 24
57 57 57 57 57 56 55 54 54 53 52 51 49 48 45 43 43 42 42 40 38 36 37 36 37 35 32 34 35 34 34 29
57 57 57 57 57 56 55 54 52 51 51 49 47 47 44 43 42 41 39 36 35 34 36 37 37 37 35 35 31 29 28 28
57 57 57 57 57 56 55 54 52 51 50 49 46 46 44 42 41 38 35 35 36 36 37 38 36 36 36 33 35 34 32 29
56 56 56 57 57 56 56 55 53 52 51 50 47 45 44 42 39 36 36 37 37 41 39 35 34 35 36 36 35 33 32 30